Location: Ertinghausen
(51.6624°N, 9.7874°E)
Time: 13:54:36
(UTC+00:00)

CZ-2C R/B - Pass Details

Date: 17 August 2024
Orbit: 703 x 903 km, 98.2° (Epoch: 14 September)

Event Time Altitude Azimuth Distance (km) Brightness Sun altitude
Rises 23:55:25 0° 27° (NNE) 3,240 7.4 -24.7°
Reaches altitude 10° 23:58:34 10° 48° (NE) 2,347 6.2 -24.6°
Maximum altitude 00:01:50 17° 88° (E) 1,957 5.2 -24.5°
Enters shadow 00:03:53 14° 114° (ESE) 2,152 5.2 -24.5°
